ProjectID,Date,Electric Generation,Electric Utility Import,Facility Electric Load
,YYYY-MM-DD,kW,kW,kW
405,2016-11-09,226.97916666666666,,226.97916666666666
405,2016-11-10,315.7083333333333,,315.7083333333333
405,2016-11-11,325.6458333333333,,325.6458333333333
405,2016-11-12,355.125,,355.125
405,2016-11-13,366.5520833333333,,366.5520833333333
405,2016-11-14,273.1770833333333,,273.1770833333333
405,2016-11-15,363.0104166666667,,363.0104166666667
405,2016-11-16,286.4375,,286.4375
405,2016-11-17,289.3541666666667,,289.3541666666667
405,2016-11-18,346.5833333333333,,346.5833333333333
405,2016-11-19,304.5416666666667,,304.5416666666667
405,2016-11-20,333.0416666666667,,333.0416666666667
405,2016-11-21,170.19791666666666,,170.19791666666666
405,2016-11-22,267.8541666666667,,267.8541666666667
405,2016-11-23,308.6041666666667,,308.6041666666667
405,2016-11-24,346.3541666666667,,346.3541666666667
405,2016-11-25,297.9270833333333,,297.9270833333333
405,2016-11-26,338.1458333333333,,338.1458333333333
405,2016-11-27,295.0,,295.0
405,2016-11-28,341.6666666666667,,341.6666666666667
405,2016-11-29,340.75,,340.75
405,2016-11-30,223.77083333333334,,223.77083333333334
405,2016-12-01,302.0,,302.0
405,2016-12-02,283.2083333333333,,283.2083333333333
405,2016-12-03,292.21875,,292.21875
405,2016-12-04,304.875,,304.875
405,2016-12-05,308.5208333333333,,308.5208333333333
405,2016-12-06,305.4270833333333,,305.4270833333333
405,2016-12-07,311.34375,,311.34375
405,2016-12-08,273.6145833333333,,273.6145833333333
405,2016-12-09,315.8020833333333,,315.8020833333333
405,2016-12-10,155.51041666666666,,155.51041666666666
405,2016-12-11,218.41666666666666,,218.41666666666666
405,2016-12-12,304.5520833333333,,304.5520833333333
405,2016-12-13,359.6770833333333,,359.6770833333333
405,2016-12-14,327.21875,,327.21875
405,2016-12-15,254.09375,,254.09375
405,2016-12-16,260.03125,,260.03125
405,2016-12-17,258.0520833333333,,258.0520833333333
405,2016-12-18,191.14583333333334,,191.14583333333334
405,2016-12-19,308.9479166666667,,308.9479166666667
405,2016-12-20,310.6354166666667,,310.6354166666667
405,2016-12-21,243.16666666666666,,243.16666666666666
405,2016-12-22,319.3229166666667,,319.3229166666667
405,2016-12-23,333.375,,333.375
405,2016-12-24,275.1770833333333,,275.1770833333333
405,2016-12-25,312.3020833333333,,312.3020833333333
405,2016-12-26,346.3229166666667,,346.3229166666667
405,2016-12-27,327.8958333333333,,327.8958333333333
405,2016-12-28,186.45833333333334,,186.45833333333334
405,2016-12-29,210.32291666666666,,210.32291666666666
405,2016-12-30,319.2291666666667,,319.2291666666667
405,2016-12-31,313.8854166666667,,313.8854166666667
405,2017-01-01,294.1875,,294.1875
405,2017-01-02,275.0520833333333,,275.0520833333333
405,2017-01-03,296.5520833333333,,296.5520833333333
405,2017-01-04,274.28125,,274.28125
405,2017-01-05,282.3020833333333,,282.3020833333333
405,2017-01-06,267.1354166666667,,267.1354166666667
405,2017-01-07,342.9479166666667,,342.9479166666667
405,2017-01-08,319.53125,,319.53125
405,2017-01-09,301.15625,,301.15625
405,2017-01-10,262.1979166666667,,262.1979166666667
405,2017-01-11,243.13541666666666,,243.13541666666666
405,2017-01-12,298.875,,298.875
405,2017-01-13,346.28125,,346.28125
405,2017-01-14,233.78125,,233.78125
405,2017-01-15,238.15625,,238.15625
405,2017-01-16,326.2916666666667,,326.2916666666667
405,2017-01-17,248.41666666666666,,248.41666666666666
405,2017-01-18,270.59375,,270.59375
405,2017-01-19,278.4479166666667,,278.4479166666667
405,2017-01-20,317.75,,317.75
405,2017-01-21,322.9791666666667,,322.9791666666667
405,2017-01-22,313.9895833333333,,313.9895833333333
405,2017-01-23,320.7604166666667,,320.7604166666667
405,2017-01-24,356.375,,356.375
405,2017-01-25,293.1354166666667,,293.1354166666667
405,2017-01-26,278.65625,,278.65625
405,2017-01-27,293.5416666666667,,293.5416666666667
405,2017-01-28,275.3854166666667,,275.3854166666667
405,2017-01-29,296.4479166666667,,296.4479166666667
405,2017-01-30,355.3125,,355.3125
405,2017-01-31,338.4166666666667,,338.4166666666667
405,2017-02-01,319.125,,319.125
405,2017-02-02,296.2916666666667,,296.2916666666667
405,2017-02-03,345.8854166666667,,345.8854166666667
405,2017-02-04,323.1041666666667,,323.1041666666667
405,2017-02-05,319.3854166666667,,319.3854166666667
405,2017-02-06,343.0833333333333,,343.0833333333333
405,2017-02-07,333.1145833333333,,333.1145833333333
405,2017-02-08,331.9479166666667,,331.9479166666667
405,2017-02-09,326.1770833333333,,326.1770833333333
405,2017-02-10,328.1145833333333,,328.1145833333333
405,2017-02-11,325.09375,,325.09375
405,2017-02-12,310.875,,310.875
405,2017-02-13,318.59375,,318.59375
405,2017-02-14,287.0833333333333,,287.0833333333333
405,2017-02-15,342.5625,,342.5625
405,2017-02-16,316.2291666666667,,316.2291666666667
405,2017-02-17,327.6354166666667,,327.6354166666667
405,2017-02-18,318.65625,,318.65625
405,2017-02-19,251.85416666666666,,251.85416666666666
405,2017-02-20,278.3958333333333,,278.3958333333333
405,2017-02-21,319.1458333333333,,319.1458333333333
405,2017-02-22,310.3645833333333,,310.3645833333333
405,2017-02-23,311.1666666666667,,311.1666666666667
405,2017-02-24,322.6354166666667,,322.6354166666667
405,2017-02-25,315.7708333333333,,315.7708333333333
405,2017-02-26,315.9479166666667,,315.9479166666667
405,2017-02-27,311.5520833333333,,311.5520833333333
405,2017-02-28,370.8020833333333,,370.8020833333333
405,2017-03-01,370.4270833333333,,370.4270833333333
405,2017-03-02,354.5416666666667,,354.5416666666667
405,2017-03-03,331.71875,,331.71875
405,2017-03-04,263.78125,,263.78125
405,2017-03-05,370.6770833333333,,370.6770833333333
405,2017-03-06,337.9166666666667,,337.9166666666667
405,2017-03-07,370.75,,370.75
405,2017-03-08,331.7604166666667,,331.7604166666667
405,2017-03-09,305.375,,305.375
405,2017-03-10,305.4375,,305.4375
405,2017-03-11,42.479166666666664,,42.479166666666664
405,2017-03-12,236.59375,,236.59375
405,2017-03-13,307.1875,,307.1875
405,2017-03-14,370.5625,,370.5625
405,2017-03-15,319.8125,,319.8125
405,2017-03-16,318.2604166666667,,318.2604166666667
405,2017-03-17,319.0,,319.0
405,2017-03-18,370.8958333333333,,370.8958333333333
405,2017-03-19,353.0729166666667,,353.0729166666667
405,2017-03-20,344.4166666666667,,344.4166666666667
405,2017-03-21,285.7708333333333,,285.7708333333333
405,2017-03-22,243.26041666666666,,243.26041666666666
405,2017-03-23,326.5520833333333,,326.5520833333333
405,2017-03-24,360.0625,,360.0625
405,2017-03-25,319.7291666666667,,319.7291666666667
405,2017-03-26,305.4895833333333,,305.4895833333333
405,2017-03-27,371.0104166666667,,371.0104166666667
405,2017-03-28,333.25,,333.25
405,2017-03-29,315.6770833333333,,315.6770833333333
405,2017-03-30,249.46875,,249.46875
405,2017-03-31,303.9479166666667,,303.9479166666667
405,2017-04-01,337.0625,,337.0625
405,2017-04-02,316.1979166666667,,316.1979166666667
405,2017-04-03,320.0729166666667,,320.0729166666667
405,2017-04-04,305.3854166666667,,305.3854166666667
405,2017-04-05,309.0729166666667,,309.0729166666667
405,2017-04-06,286.6666666666667,,286.6666666666667
405,2017-04-07,305.3125,,305.3125
405,2017-04-08,310.6770833333333,,310.6770833333333
405,2017-04-09,303.4895833333333,,303.4895833333333
405,2017-04-10,287.375,,287.375
405,2017-04-11,310.125,,310.125
405,2017-04-12,370.90625,,370.90625
405,2017-04-13,320.7291666666667,,320.7291666666667
405,2017-04-14,331.7395833333333,,331.7395833333333
405,2017-04-15,328.1041666666667,,328.1041666666667
405,2017-04-16,353.03125,,353.03125
405,2017-04-17,331.8020833333333,,331.8020833333333
405,2017-04-18,326.7083333333333,,326.7083333333333
405,2017-04-19,370.6041666666667,,370.6041666666667
405,2017-04-20,370.5625,,370.5625
405,2017-04-21,315.2708333333333,,315.2708333333333
405,2017-04-22,370.5520833333333,,370.5520833333333
405,2017-04-23,269.0833333333333,,269.0833333333333
405,2017-04-24,354.8229166666667,,354.8229166666667
405,2017-04-25,346.0729166666667,,346.0729166666667
405,2017-04-26,344.03125,,344.03125
405,2017-04-27,322.9166666666667,,322.9166666666667
405,2017-04-28,285.1979166666667,,285.1979166666667
405,2017-04-29,330.1770833333333,,330.1770833333333
405,2017-04-30,286.9479166666667,,286.9479166666667
405,2017-05-01,270.9375,,270.9375
405,2017-05-02,370.65625,,370.65625
405,2017-05-03,258.125,,258.125
405,2017-05-04,317.75,,317.75
405,2017-05-05,324.9583333333333,,324.9583333333333
405,2017-05-06,301.8541666666667,,301.8541666666667
405,2017-05-07,273.6145833333333,,273.6145833333333
405,2017-05-08,266.40625,,266.40625
405,2017-05-09,249.69791666666666,,249.69791666666666
405,2017-05-10,254.28125,,254.28125
405,2017-05-11,201.19791666666666,,201.19791666666666
405,2017-05-12,248.5,,248.5
405,2017-05-13,200.53125,,200.53125
405,2017-05-14,243.5625,,243.5625
405,2017-05-15,200.70833333333334,,200.70833333333334
405,2017-05-16,200.26041666666666,,200.26041666666666
405,2017-05-17,86.02083333333333,,86.02083333333333
405,2017-05-18,0.0,,0.0
405,2017-05-19,189.54166666666666,,189.54166666666666
405,2017-05-20,201.15625,,201.15625
405,2017-05-21,243.51041666666666,,243.51041666666666
405,2017-05-22,275.6458333333333,,275.6458333333333
405,2017-05-23,330.6458333333333,,330.6458333333333
405,2017-05-24,365.9270833333333,,365.9270833333333
405,2017-05-25,370.8333333333333,,370.8333333333333
405,2017-05-26,371.0104166666667,,371.0104166666667
405,2017-05-27,181.73958333333334,,181.73958333333334
405,2017-05-28,307.1041666666667,,307.1041666666667
405,2017-05-29,306.1979166666667,,306.1979166666667
405,2017-05-30,321.96875,,321.96875
405,2017-05-31,266.59375,,266.59375
405,2017-06-01,362.3229166666667,,362.3229166666667
405,2017-06-02,333.3125,,333.3125
405,2017-06-03,338.6770833333333,,338.6770833333333
405,2017-06-04,312.78125,,312.78125
405,2017-06-05,255.94791666666666,,255.94791666666666
405,2017-06-06,328.6041666666667,,328.6041666666667
405,2017-06-07,351.6770833333333,,351.6770833333333
405,2017-06-08,285.9166666666667,,285.9166666666667
405,2017-06-09,291.53125,,291.53125
405,2017-06-10,265.2395833333333,,265.2395833333333
405,2017-06-11,288.1354166666667,,288.1354166666667
405,2017-06-12,300.3229166666667,,300.3229166666667
405,2017-06-13,308.25,,308.25
405,2017-06-14,304.0520833333333,,304.0520833333333
405,2017-06-15,340.6145833333333,,340.6145833333333
405,2017-06-16,323.3229166666667,,323.3229166666667
405,2017-06-17,282.3020833333333,,282.3020833333333
405,2017-06-18,300.1458333333333,,300.1458333333333
405,2017-06-19,259.8125,,259.8125
405,2017-06-20,307.3229166666667,,307.3229166666667
405,2017-06-21,313.6041666666667,,313.6041666666667
405,2017-06-22,319.9375,,319.9375
405,2017-06-23,288.8333333333333,,288.8333333333333
405,2017-06-24,345.8854166666667,,345.8854166666667
405,2017-06-25,294.8541666666667,,294.8541666666667
405,2017-06-26,333.03125,,333.03125
405,2017-06-27,286.375,,286.375
405,2017-06-28,280.96875,,280.96875
405,2017-06-29,301.96875,,301.96875
405,2017-06-30,259.71875,,259.71875
405,2017-07-01,272.9375,,272.9375
405,2017-07-02,280.8229166666667,,280.8229166666667
405,2017-07-03,292.7708333333333,,292.7708333333333
405,2017-07-04,286.2395833333333,,286.2395833333333
405,2017-07-05,273.5208333333333,,273.5208333333333
405,2017-07-06,293.1041666666667,,293.1041666666667
405,2017-07-07,307.6979166666667,,307.6979166666667
405,2017-07-08,300.25,,300.25
405,2017-07-09,319.71875,,319.71875
405,2017-07-10,300.0520833333333,,300.0520833333333
405,2017-07-11,271.8958333333333,,271.8958333333333
405,2017-07-12,273.3020833333333,,273.3020833333333
405,2017-07-13,298.2708333333333,,298.2708333333333
405,2017-07-14,310.0833333333333,,310.0833333333333
405,2017-07-15,278.875,,278.875
405,2017-07-16,284.3958333333333,,284.3958333333333
405,2017-07-17,358.8125,,358.8125
405,2017-07-18,295.1666666666667,,295.1666666666667
405,2017-07-19,326.6770833333333,,326.6770833333333
405,2017-07-20,293.28125,,293.28125
405,2017-07-21,191.15625,,191.15625
405,2017-07-22,291.4270833333333,,291.4270833333333
405,2017-07-23,273.15625,,273.15625
405,2017-07-24,226.88541666666666,,226.88541666666666
405,2017-07-25,359.9583333333333,,359.9583333333333
405,2017-07-26,313.8854166666667,,313.8854166666667
405,2017-07-27,303.71875,,303.71875
405,2017-07-28,297.3958333333333,,297.3958333333333
405,2017-07-29,313.0104166666667,,313.0104166666667
405,2017-07-30,255.61458333333334,,255.61458333333334
405,2017-07-31,274.6458333333333,,274.6458333333333
405,2017-08-01,305.2604166666667,,305.2604166666667
405,2017-08-02,319.8958333333333,,319.8958333333333
405,2017-08-03,336.0625,,336.0625
405,2017-08-04,278.7083333333333,,278.7083333333333
405,2017-08-05,290.2604166666667,,290.2604166666667
405,2017-08-06,266.7395833333333,,266.7395833333333
405,2017-08-07,319.5833333333333,,319.5833333333333
405,2017-08-08,232.64583333333334,,232.64583333333334
405,2017-08-09,220.36458333333334,,220.36458333333334
405,2017-08-10,299.9791666666667,,299.9791666666667
405,2017-08-11,278.5208333333333,,278.5208333333333
405,2017-08-12,266.1041666666667,,266.1041666666667
405,2017-08-13,282.75,,282.75
405,2017-08-14,242.21875,,242.21875
405,2017-08-15,275.1770833333333,,275.1770833333333
405,2017-08-16,299.28125,,299.28125
405,2017-08-17,109.66666666666667,,109.66666666666667
405,2017-08-18,58.020833333333336,,58.020833333333336
405,2017-08-19,151.5,,151.5
405,2017-08-20,190.84375,,190.84375
405,2017-08-21,200.73958333333334,,200.73958333333334
405,2017-08-22,200.6875,,200.6875
405,2017-08-23,163.60416666666666,,163.60416666666666
405,2017-08-24,177.89583333333334,,177.89583333333334
405,2017-08-25,176.5625,,176.5625
405,2017-08-26,51.458333333333336,,51.458333333333336
405,2017-08-27,30.864583333333332,,30.864583333333332
405,2017-08-28,159.61458333333334,,159.61458333333334
405,2017-08-29,249.09375,,249.09375
405,2017-08-30,303.9791666666667,,303.9791666666667
405,2017-08-31,322.7916666666667,,322.7916666666667
405,2017-09-01,319.8854166666667,,319.8854166666667
405,2017-09-02,369.1875,,369.1875
405,2017-09-03,331.9895833333333,,331.9895833333333
405,2017-09-04,370.9375,,370.9375
405,2017-09-05,243.13541666666666,,243.13541666666666
405,2017-09-06,291.2083333333333,,291.2083333333333
405,2017-09-07,246.97916666666666,,246.97916666666666
405,2017-09-08,326.5416666666667,,326.5416666666667
405,2017-09-09,308.3541666666667,,308.3541666666667
405,2017-09-10,190.27083333333334,,190.27083333333334
405,2017-09-11,287.96875,,287.96875
405,2017-09-12,327.4270833333333,,327.4270833333333
405,2017-09-13,307.8229166666667,,307.8229166666667
405,2017-09-14,297.9479166666667,,297.9479166666667
405,2017-09-15,341.3229166666667,,341.3229166666667
405,2017-09-16,320.0104166666667,,320.0104166666667
405,2017-09-17,299.5729166666667,,299.5729166666667
405,2017-09-18,300.8020833333333,,300.8020833333333
405,2017-09-19,308.5833333333333,,308.5833333333333
405,2017-09-20,265.6458333333333,,265.6458333333333
405,2017-09-21,284.3958333333333,,284.3958333333333
405,2017-09-22,333.75,,333.75
405,2017-09-23,286.1979166666667,,286.1979166666667
405,2017-09-24,303.6875,,303.6875
405,2017-09-25,279.5625,,279.5625
405,2017-09-26,371.09375,,371.09375
405,2017-09-27,287.6770833333333,,287.6770833333333
405,2017-09-28,277.1979166666667,,277.1979166666667
405,2017-09-29,307.6145833333333,,307.6145833333333
405,2017-09-30,361.9166666666667,,361.9166666666667
405,2017-10-01,315.9270833333333,,315.9270833333333
405,2017-10-02,208.28125,,208.28125
405,2017-10-03,298.1041666666667,,298.1041666666667
405,2017-10-04,333.8854166666667,,333.8854166666667
405,2017-10-05,333.7291666666667,,333.7291666666667
405,2017-10-06,370.9895833333333,,370.9895833333333
405,2017-10-07,371.1041666666667,,371.1041666666667
405,2017-10-08,370.90625,,370.90625
405,2017-10-09,327.84375,,327.84375
405,2017-10-10,357.1041666666667,,357.1041666666667
405,2017-10-11,307.25,,307.25
405,2017-10-12,321.5833333333333,,321.5833333333333
405,2017-10-13,317.6145833333333,,317.6145833333333
405,2017-10-14,318.875,,318.875
405,2017-10-15,332.21875,,332.21875
405,2017-10-16,344.6666666666667,,344.6666666666667
405,2017-10-17,371.0104166666667,,371.0104166666667
405,2017-10-18,300.1979166666667,,300.1979166666667
405,2017-10-19,300.2708333333333,,300.2708333333333
405,2017-10-20,201.02083333333334,,201.02083333333334
405,2017-10-21,163.6875,,163.6875
405,2017-10-22,106.3125,,106.3125
405,2017-10-23,104.58333333333333,,104.58333333333333
405,2017-10-24,201.10416666666666,,201.10416666666666
405,2017-10-25,231.65625,,231.65625
405,2017-10-26,269.1666666666667,,269.1666666666667
405,2017-10-27,296.8229166666667,,296.8229166666667
405,2017-10-28,304.0520833333333,,304.0520833333333
405,2017-10-29,261.15625,,261.15625
405,2017-10-30,268.53125,,268.53125
405,2017-10-31,371.1979166666667,,371.1979166666667
405,2017-11-01,308.3958333333333,,308.3958333333333
405,2017-11-02,289.4791666666667,,289.4791666666667
405,2017-11-03,363.3958333333333,,363.3958333333333
405,2017-11-04,340.8229166666667,,340.8229166666667
405,2017-11-05,262.9270833333333,,262.9270833333333
405,2017-11-06,296.1458333333333,,296.1458333333333
405,2017-11-07,364.7291666666667,,364.7291666666667
405,2017-11-08,342.4791666666667,,342.4791666666667
405,2017-11-09,314.46875,,314.46875
405,2017-11-10,304.3645833333333,,304.3645833333333
405,2017-11-11,298.25,,298.25
405,2017-11-12,305.4479166666667,,305.4479166666667
405,2017-11-13,332.1354166666667,,332.1354166666667
405,2017-11-14,371.0208333333333,,371.0208333333333
405,2017-11-15,319.8958333333333,,319.8958333333333
405,2017-11-16,353.4583333333333,,353.4583333333333
405,2017-11-17,334.0208333333333,,334.0208333333333
405,2017-11-18,314.2604166666667,,314.2604166666667
405,2017-11-19,268.21875,,268.21875
405,2017-11-20,319.9895833333333,,319.9895833333333
405,2017-11-21,370.9166666666667,,370.9166666666667
405,2017-11-22,314.21875,,314.21875
405,2017-11-23,351.53125,,351.53125
405,2017-11-24,254.30208333333334,,254.30208333333334
405,2017-11-25,307.9791666666667,,307.9791666666667
405,2017-11-26,337.2604166666667,,337.2604166666667
405,2017-11-27,259.625,,259.625
405,2017-11-28,255.94791666666666,,255.94791666666666
405,2017-11-29,307.2708333333333,,307.2708333333333
405,2017-11-30,340.9166666666667,,340.9166666666667
405,2017-12-01,278.9166666666667,,278.9166666666667
405,2017-12-02,288.09375,,288.09375
405,2017-12-03,310.5104166666667,,310.5104166666667
405,2017-12-04,288.3125,,288.3125
405,2017-12-05,309.1041666666667,,309.1041666666667
405,2017-12-06,312.3541666666667,,312.3541666666667
405,2017-12-07,307.7395833333333,,307.7395833333333
405,2017-12-08,303.3958333333333,,303.3958333333333
405,2017-12-09,321.2708333333333,,321.2708333333333
405,2017-12-10,301.84375,,301.84375
405,2017-12-11,290.7708333333333,,290.7708333333333
405,2017-12-12,264.5625,,264.5625
405,2017-12-13,293.1666666666667,,293.1666666666667
405,2017-12-14,247.17708333333334,,247.17708333333334
405,2017-12-15,269.3020833333333,,269.3020833333333
405,2017-12-16,241.5625,,241.5625
405,2017-12-17,300.0520833333333,,300.0520833333333
405,2017-12-18,362.34375,,362.34375
405,2017-12-19,340.1354166666667,,340.1354166666667
405,2017-12-20,0.0,,0.0
405,2017-12-21,64.72916666666667,,64.72916666666667
405,2017-12-22,257.5729166666667,,257.5729166666667
405,2017-12-23,266.4479166666667,,266.4479166666667
405,2017-12-24,282.5625,,282.5625
405,2017-12-25,268.1041666666667,,268.1041666666667
405,2017-12-26,260.40625,,260.40625
405,2017-12-27,319.6666666666667,,319.6666666666667
405,2017-12-28,294.8854166666667,,294.8854166666667
405,2017-12-29,276.90625,,276.90625
405,2017-12-30,270.3333333333333,,270.3333333333333
405,2017-12-31,302.03125,,302.03125
405,2018-01-01,298.15625,,298.15625
405,2018-01-02,298.4479166666667,,298.4479166666667
405,2018-01-03,40.010416666666664,,40.010416666666664
405,2018-01-04,0.0,,0.0
405,2018-01-05,0.0,,0.0
405,2018-01-06,0.0,,0.0
405,2018-01-07,0.0,,0.0
405,2018-01-08,0.0,,0.0
405,2018-01-09,0.0,,0.0
405,2018-01-10,0.0,,0.0
405,2018-01-11,145.54166666666666,,145.54166666666666
405,2018-01-12,86.8125,,86.8125
405,2018-01-13,61.895833333333336,,61.895833333333336
405,2018-01-14,99.375,,99.375
405,2018-01-15,91.02083333333333,,91.02083333333333
405,2018-01-16,164.03125,,164.03125
405,2018-01-17,90.95833333333333,,90.95833333333333
405,2018-01-18,160.98958333333334,,160.98958333333334
405,2018-01-19,139.47916666666666,,139.47916666666666
405,2018-01-20,174.28125,,174.28125
405,2018-01-21,185.9375,,185.9375
405,2018-01-22,238.38541666666666,,238.38541666666666
405,2018-01-23,194.92708333333334,,194.92708333333334
405,2018-01-24,234.29166666666666,,234.29166666666666
405,2018-01-25,271.3645833333333,,271.3645833333333
405,2018-01-26,185.91666666666666,,185.91666666666666
405,2018-01-27,270.84375,,270.84375
405,2018-01-28,201.0625,,201.0625
405,2018-01-29,280.6145833333333,,280.6145833333333
405,2018-01-30,201.0625,,201.0625
405,2018-01-31,278.71875,,278.71875
405,2018-02-01,145.38541666666666,,145.38541666666666
405,2018-02-02,200.88541666666666,,200.88541666666666
405,2018-02-03,200.78125,,200.78125
405,2018-02-04,142.47916666666666,,142.47916666666666
405,2018-02-05,186.01041666666666,,186.01041666666666
405,2018-02-06,93.01041666666667,,93.01041666666667
405,2018-02-07,169.41666666666666,,169.41666666666666
405,2018-02-08,186.72916666666666,,186.72916666666666
405,2018-02-09,186.91666666666666,,186.91666666666666
405,2018-02-10,187.10416666666666,,187.10416666666666
405,2018-02-11,134.27083333333334,,134.27083333333334
405,2018-02-12,177.02083333333334,,177.02083333333334
405,2018-02-13,187.13541666666666,,187.13541666666666
405,2018-02-14,198.89583333333334,,198.89583333333334
405,2018-02-15,187.0625,,187.0625
405,2018-02-16,187.125,,187.125
405,2018-02-17,186.72916666666666,,186.72916666666666
405,2018-02-18,187.11458333333334,,187.11458333333334
405,2018-02-19,101.40625,,101.40625
405,2018-02-20,186.04166666666666,,186.04166666666666
405,2018-02-21,185.875,,185.875
405,2018-02-22,185.82291666666666,,185.82291666666666
405,2018-02-23,162.83333333333334,,162.83333333333334
405,2018-02-24,186.20833333333334,,186.20833333333334
405,2018-02-25,127.88541666666667,,127.88541666666667
405,2018-02-26,42.177083333333336,,42.177083333333336
405,2018-02-27,188.89583333333334,,188.89583333333334
405,2018-02-28,187.07291666666666,,187.07291666666666
405,2018-03-01,186.86458333333334,,186.86458333333334
405,2018-03-02,104.25,,104.25
405,2018-03-03,187.02083333333334,,187.02083333333334
405,2018-03-04,186.8125,,186.8125
405,2018-03-05,117.69791666666667,,117.69791666666667
405,2018-03-06,187.11458333333334,,187.11458333333334
405,2018-03-07,186.96875,,186.96875
405,2018-03-08,186.86458333333334,,186.86458333333334
405,2018-03-09,118.02083333333333,,118.02083333333333
405,2018-03-10,24.135416666666668,,24.135416666666668
405,2018-03-11,202.0,,202.0
405,2018-03-12,210.28125,,210.28125
405,2018-03-13,214.19791666666666,,214.19791666666666
405,2018-03-14,186.65625,,186.65625
405,2018-03-15,187.19791666666666,,187.19791666666666
405,2018-03-16,209.52083333333334,,209.52083333333334
405,2018-03-17,259.0416666666667,,259.0416666666667
405,2018-03-18,299.7708333333333,,299.7708333333333
405,2018-03-19,275.4375,,275.4375
405,2018-03-20,281.7291666666667,,281.7291666666667
405,2018-03-21,319.6979166666667,,319.6979166666667
405,2018-03-22,301.5625,,301.5625
405,2018-03-23,287.59375,,287.59375
405,2018-03-24,267.5729166666667,,267.5729166666667
405,2018-03-25,324.8645833333333,,324.8645833333333
405,2018-03-26,316.6041666666667,,316.6041666666667